When you browse on this site, cookies collect data to enhance your experience and personalize the content and advertising you see.
Visit our Privacy Policy to learn more. By continuing to use the site, you agree to this use of cookies and data.
  • Em Portugal
  • Lista de países
  • Para 7 dias
  • Temperatura da água
  • Mapas de satélite
  • Mapa do tempo
  • Widgets de tempo
  • user-avatar
    Iniciar Sessão

    Previsão horária em Kivchey

    Hoje, 25 Junho, Terça-feira

    Tempo Temperatura Precipitação Vento Pressão Humidade
    00:00 +14°C° 0 mm 3 m/s 746 mmHg 82%
    01:00 +13°C° 0 mm 3 m/s 746 mmHg 80%
    02:00 +13°C° 0 mm 3 m/s 746 mmHg 79%
    03:00 +12°C° 0 mm 3 m/s 747 mmHg 78%
    04:00 +13°C° 0 mm 3 m/s 747 mmHg 77%
    05:00 +13°C° 0 mm 3 m/s 747 mmHg 76%
    06:00 +14°C° 0 mm 4 m/s 748 mmHg 75%
    07:00 +15°C° 0 mm 4 m/s 748 mmHg 69%
    08:00 +18°C° 0 mm 4 m/s 748 mmHg 63%
    09:00 +20°C° 0 mm 4 m/s 748 mmHg 57%
    10:00 +20°C° 0 mm 4 m/s 748 mmHg 56%
    11:00 +21°C° 0 mm 4 m/s 748 mmHg 54%
    12:00 +21°C° 0 mm 4 m/s 748 mmHg 52%
    13:00 +22°C° 0 mm 4 m/s 749 mmHg 52%
    14:00 +22°C° 0 mm 4 m/s 749 mmHg 53%
    15:00 +22°C° 0 mm 4 m/s 749 mmHg 53%
    16:00 +21°C° 0 mm 4 m/s 748 mmHg 56%
    17:00 +21°C° 0 mm 3 m/s 748 mmHg 60%
    18:00 +20°C° 0 mm 3 m/s 748 mmHg 63%
    19:00 +19°C° 0 mm 3 m/s 748 mmHg 67%
    20:00 +17°C° 0 mm 2 m/s 749 mmHg 71%
    21:00 +15°C° 0 mm 2 m/s 749 mmHg 75%
    22:00 +14°C° 0 mm 2 m/s 749 mmHg 78%
    23:00 +13°C° 0 mm 2 m/s 748 mmHg 81%

    Amanhã, 26 Junho, Quarta-feira

    Tempo Temperatura Precipitação Vento Pressão Humidade
    00:00 +12°C° 0 mm 2 m/s 748 mmHg 84%
    01:00 +12°C° 0 mm 2 m/s 748 mmHg 86%
    02:00 +10°C° 0 mm 2 m/s 749 mmHg 88%
    03:00 +10°C° 0 mm 2 m/s 749 mmHg 90%
    04:00 +10°C° 0 mm 2 m/s 749 mmHg 87%
    05:00 +11°C° 0 mm 3 m/s 749 mmHg 84%
    06:00 +12°C° 0 mm 3 m/s 749 mmHg 81%
    07:00 +13°C° 0 mm 3 m/s 749 mmHg 73%
    08:00 +16°C° 0 mm 3 m/s 749 mmHg 66%
    09:00 +17°C° 0 mm 4 m/s 749 mmHg 59%
    10:00 +18°C° 0 mm 4 m/s 749 mmHg 56%
    11:00 +19°C° 0 mm 4 m/s 748 mmHg 54%
    12:00 +19°C° 0 mm 4 m/s 748 mmHg 51%
    13:00 +20°C° 0 mm 3 m/s 748 mmHg 50%
    14:00 +20°C° 0 mm 3 m/s 748 mmHg 49%
    15:00 +20°C° 0 mm 3 m/s 747 mmHg 47%
    16:00 +20°C° 0 mm 2 m/s 747 mmHg 51%
    17:00 +20°C° 0 mm 2 m/s 746 mmHg 55%
    18:00 +20°C° 0 mm 2 m/s 746 mmHg 59%
    19:00 +18°C° 0 mm 2 m/s 745 mmHg 64%
    20:00 +16°C° 0 mm 2 m/s 745 mmHg 70%
    21:00 +15°C° 0 mm 2 m/s 745 mmHg 75%
    22:00 +15°C° 0.1 mm 2 m/s 744 mmHg 79%
    23:00 +14°C° 0.1 mm 2 m/s 744 mmHg 82%

    Depois de amanhã, 27 Junho, Quinta-feira

    Tempo Temperatura Precipitação Vento Pressão Humidade
    00:00 +14°C° 0.1 mm 2 m/s 743 mmHg 86%
    01:00 +14°C° 1.4 mm 2 m/s 743 mmHg 90%
    02:00 +14°C° 1.4 mm 2 m/s 742 mmHg 94%
    03:00 +13°C° 1.4 mm 2 m/s 742 mmHg 98%
    04:00 +13°C° 2 mm 2 m/s 741 mmHg 98%
    05:00 +14°C° 2 mm 2 m/s 741 mmHg 98%
    06:00 +14°C° 2 mm 2 m/s 740 mmHg 98%
    07:00 +14°C° 0.3 mm 1 m/s 740 mmHg 95%
    08:00 +15°C° 0.3 mm 1 m/s 740 mmHg 91%
    09:00 +16°C° 0.3 mm 1 m/s 739 mmHg 88%
    10:00 +16°C° 0.1 mm 1 m/s 739 mmHg 88%
    11:00 +16°C° 0.1 mm 2 m/s 738 mmHg 87%
    12:00 +16°C° 0.1 mm 2 m/s 738 mmHg 86%
    13:00 +16°C° 0.3 mm 3 m/s 737 mmHg 89%
    14:00 +14°C° 0.3 mm 3 m/s 737 mmHg 91%
    15:00 +14°C° 0.3 mm 3 m/s 736 mmHg 93%
    16:00 +14°C° 1.7 mm 3 m/s 736 mmHg 95%
    17:00 +14°C° 1.7 mm 4 m/s 735 mmHg 96%
    18:00 +14°C° 1.7 mm 5 m/s 734 mmHg 97%
    19:00 +14°C° 1.9 mm 5 m/s 734 mmHg 97%
    20:00 +14°C° 1.9 mm 6 m/s 733 mmHg 97%
    21:00 +14°C° 1.9 mm 7 m/s 732 mmHg 97%
    22:00 +15°C° 4.8 mm 6 m/s 731 mmHg 97%
    23:00 +15°C° 4.8 mm 6 m/s 731 mmHg 97%

    28 Junho, Sexta-feira

    Tempo Temperatura Precipitação Vento Pressão Humidade
    00:00 +16°C° 4.8 mm 6 m/s 730 mmHg 97%
    01:00 +16°C° 0.9 mm 6 m/s 729 mmHg 97%
    02:00 +16°C° 0.9 mm 5 m/s 729 mmHg 97%
    03:00 +17°C° 0.9 mm 5 m/s 728 mmHg 97%
    04:00 +16°C° 0.3 mm 5 m/s 728 mmHg 96%
    05:00 +16°C° 0.3 mm 6 m/s 727 mmHg 96%
    06:00 +16°C° 0.3 mm 6 m/s 727 mmHg 96%
    07:00 +17°C° 0.4 mm 6 m/s 727 mmHg 95%
    08:00 +17°C° 0.4 mm 6 m/s 727 mmHg 94%
    09:00 +19°C° 0.4 mm 6 m/s 727 mmHg 93%
    10:00 +19°C° 1 mm 6 m/s 727 mmHg 90%
    11:00 +19°C° 1 mm 6 m/s 727 mmHg 87%
    12:00 +20°C° 1 mm 5 m/s 727 mmHg 84%
    13:00 +20°C° 0.2 mm 5 m/s 727 mmHg 79%
    14:00 +20°C° 0.2 mm 5 m/s 727 mmHg 75%
    15:00 +20°C° 0.2 mm 5 m/s 727 mmHg 70%
    16:00 +19°C° 0.2 mm 5 m/s 727 mmHg 73%
    17:00 +19°C° 0.2 mm 4 m/s 727 mmHg 77%
    18:00 +18°C° 0.2 mm 4 m/s 727 mmHg 80%
    19:00 +17°C° 0.1 mm 4 m/s 727 mmHg 84%
    20:00 +15°C° 0.1 mm 4 m/s 727 mmHg 87%
    21:00 +13°C° 0.1 mm 4 m/s 727 mmHg 91%
    22:00 +13°C° 0 mm 4 m/s 727 mmHg 92%
    23:00 +12°C° 0 mm 4 m/s 727 mmHg 93%

    29 Junho, Sábado

    Tempo Temperatura Precipitação Vento Pressão Humidade
    00:00 +11°C° 0 mm 4 m/s 727 mmHg 94%
    01:00 +11°C° 0 mm 4 m/s 727 mmHg 95%
    02:00 +11°C° 0 mm 4 m/s 727 mmHg 95%
    03:00 +10°C° 0 mm 5 m/s 727 mmHg 95%
    04:00 +10°C° 0 mm 5 m/s 727 mmHg 92%
    05:00 +10°C° 0 mm 5 m/s 728 mmHg 90%
    06:00 +12°C° 0 mm 5 m/s 728 mmHg 87%
    07:00 +12°C° 0.1 mm 5 m/s 728 mmHg 85%
    08:00 +13°C° 0.1 mm 5 m/s 729 mmHg 83%
    09:00 +13°C° 0.1 mm 5 m/s 729 mmHg 81%
    10:00 +14°C° 0.2 mm 5 m/s 730 mmHg 77%
    11:00 +15°C° 0.2 mm 6 m/s 730 mmHg 73%
    12:00 +16°C° 0.2 mm 6 m/s 731 mmHg 69%
    13:00 +17°C° 0.1 mm 6 m/s 731 mmHg 67%
    14:00 +17°C° 0.1 mm 5 m/s 731 mmHg 66%
    15:00 +17°C° 0.1 mm 5 m/s 731 mmHg 64%
    16:00 +18°C° 0 mm 4 m/s 732 mmHg 66%
    17:00 +17°C° 0 mm 4 m/s 732 mmHg 68%
    18:00 +17°C° 0 mm 3 m/s 732 mmHg 70%
    19:00 +14°C° 0 mm 3 m/s 732 mmHg 76%
    20:00 +12°C° 0 mm 3 m/s 733 mmHg 81%
    21:00 +10°C° 0 mm 2 m/s 733 mmHg 87%
    22:00 +9°C° 0 mm 2 m/s 733 mmHg 90%
    23:00 +9°C° 0 mm 2 m/s 733 mmHg 92%

    30 Junho, Domingo

    Tempo Temperatura Precipitação Vento Pressão Humidade
    00:00 +8°C° 0 mm 2 m/s 733 mmHg 95%
    01:00 +7°C° 0 mm 2 m/s 734 mmHg 95%
    02:00 +7°C° 0 mm 2 m/s 734 mmHg 96%
    03:00 +6°C° 0 mm 2 m/s 734 mmHg 96%
    04:00 +7°C° 0 mm 2 m/s 734 mmHg 94%
    05:00 +7°C° 0 mm 3 m/s 734 mmHg 91%
    06:00 +8°C° 0 mm 3 m/s 735 mmHg 88%
    07:00 +10°C° 0 mm 3 m/s 735 mmHg 82%
    08:00 +11°C° 0 mm 4 m/s 735 mmHg 76%
    09:00 +12°C° 0 mm 4 m/s 735 mmHg 70%
    10:00 +13°C° 0 mm 4 m/s 736 mmHg 68%
    11:00 +14°C° 0 mm 4 m/s 736 mmHg 66%
    12:00 +15°C° 0 mm 4 m/s 736 mmHg 64%
    13:00 +15°C° 0 mm 4 m/s 736 mmHg 64%
    14:00 +16°C° 0 mm 3 m/s 736 mmHg 63%
    15:00 +17°C° 0 mm 3 m/s 737 mmHg 62%
    16:00 +16°C° 0.2 mm 3 m/s 737 mmHg 69%
    17:00 +14°C° 0.2 mm 3 m/s 737 mmHg 77%
    18:00 +14°C° 0.2 mm 2 m/s 737 mmHg 84%
    19:00 +12°C° 0 mm 2 m/s 737 mmHg 87%
    20:00 +11°C° 0 mm 1 m/s 738 mmHg 91%
    21:00 +10°C° 0 mm 1 m/s 738 mmHg 94%
    22:00 +9°C° 0 mm 1 m/s 738 mmHg 94%
    23:00 +9°C° 0 mm 1 m/s 738 mmHg 95%
    Mostrar mais